Regional Weather Roundup
Issued by NWS

Home | Current Version | Previous Version | Text Only | Print | Product List | Glossary Off
Versions: 1 2 3 4 5 6 7 8 9 10 11 12 13 14 15 16 17 18 19 20 21 22 23 24 25 26 27 28 29 30 31 32 33 34 35 36 37 38 39 40 41 42 43 44 45 46 47 48

000
ASUS45 KCYS 010710
RWRWY

WYOMING REGIONAL WEATHER ROUNDUP
NATIONAL WEATHER SERVICE CHEYENNE WY
100 AM MDT WED OCT 01 2014

NOTE:  "FAIR" INDICATES FEW OR NO CLOUDS BELOW 12,000 FEET
WITH NO SIGNIFICANT WEATHER AND/OR OBSTRUCTIONS TO VISIBILITY.

WYZ001-010800-
YELLOWSTONE NATIONAL PARK

CITY           SKY/WX    TMP DP  RH WIND       PRES   REMARKS
LK YELLOWSTONE   N/A     33  31  92 S3        29.98R
W YELLOWSTONE  NOT AVBL

$$
WYZ002>013-054>058-071-098>099-010800-
NORTHERN WYOMING

CITY           SKY/WX    TMP DP  RH WIND       PRES   REMARKS
JACKSON        CLOUDY    41  36  81 S14       29.95S
CODY           CLOUDY    43  43 100 N7        29.88S
GREYBULL       CLOUDY    51  45  79 NW18G24   29.83R
WORLAND        LGT RAIN  50  46  86 NW8       29.85R
SHERIDAN       CLOUDY    50  43  77 N6        29.82R
BUFFALO        MOCLDY    48  40  73 N6        29.83R
GILLETTE       PTCLDY    48  44  86 W9        29.79S
HULETT         DRIZZLE   50  45  81 W8        29.78
NEWCASTLE      FAIR      46  43  87 NW3       29.80

$$
WYZ014>020-022>026-101>103-010800-
CENTRAL WYOMING

CITY           SKY/WX    TMP DP  RH WIND       PRES   REMARKS
BIG PINEY      PTCLDY    34  28  79 N12       29.98S WCI  25
PINEDALE       MOSUNNY   36  32  87 W8        29.98S WCI  29
DUBOIS         FAIR      36  30  80 NW17      29.91F WCI  25
LANDER         PTCLDY    45  38  76 E5        29.84R
RIVERTON       MOCLDY    48  42  80 N10       29.85R
CASPER         CLOUDY    49  37  63 SW6       29.83S
DOUGLAS        MOCLDY    48  42  80 W7        29.85R

$$
WYZ021-027>030-104>119-010800-
SOUTHERN WYOMING

CITY           SKY/WX    TMP DP  RH WIND       PRES   REMARKS
EVANSTON       CLEAR     40  36  86 CALM      30.00S
KEMMERER       MOSUNNY   34  34 100 W5        30.00S WCI  30
FORT BRIDGER     N/A     40  39  95 W8        30.03F
ROCK SPRINGS   MOCLDY    41  37  86 SW14      29.97S
DIXON          CLOUDY    45  42  88 S9        30.01S
RAWLINS        CLOUDY    42  37  82 W17G25    29.93S
LARAMIE        PTCLDY    40  33  76 SE5       29.93S
CHEYENNE       PTCLDY    46  36  68 W7        29.89S
TORRINGTON     PTCLDY    52  43  71 CALM      29.79R
PINE BLUFFS    PTSUNNY   45  41  87 W6        29.86S

$$


USA.gov is the U.S. government's official web portal to all federal, state and local government web resources and services.